Richmond Hanover County, VA

5:26 AM EDT on September 22, 2019 (GMT -0400)
Hanover County Municipal

Weather History for KOFP - August, 2019

Change the Weather History Date:

Monday, August 19, 2019

  Actual Average Record
Temperature  
Mean Temperature 84 °F -  
Max Temperature 97 °F 84 °F 99 °F (2002)
Min Temperature 73 °F 65 °F 52 °F (1998)
Cooling Degree Days 20    
Growing Degree Days 34 (Base 50)    
Moisture  
Dew Point 70 °F    
Average Humidity 65    
Maximum Humidity 91    
Minimum Humidity 41    
Precipitation  
Precipitation 0.00 in - - ()
Sea Level Pressure  
Sea Level Pressure 30.01 in    
Wind  
Wind Speed 3 mph (SW)    
Max Wind Speed 9 mph    
Max Gust Speed -    
Visibility 10 miles    
Events Thunderstorm    
Averages and records for this station are not official NWS values.
T = Trace of Precipitation, MM = Missing Value Source: NWS Daily Summary

Daily Weather History Graph

Daily Weather History Graph

Search for Another Location

Airport or City:

Astronomy

Aug. 19, 2019 Rise Set
Actual Time 6:28 AM EDT 7:57 PM EDT
Civil Twilight 6:00 AM EDT 8:25 PM EDT
Nautical Twilight 5:27 AM EDT 8:58 PM EDT
Astronomical Twilight 4:52 AM EDT 9:33 PM EDT
Moon 10:22 PM EDT (8/19) 10:04 AM EDT (8/19)
Length of Visible Light 14h 24m
Length of Day
13h 28m
Waning Gibbous, 85% of the Moon is Illuminated
Aug 19
Waning Gibbous
Aug 23
Last Quarter
Aug 30
New
Sep 5
First Quarter
Sep 14
Full

Hourly Weather History & Observations

Time (EDT) Temp. Heat Index Dew Point Humidity Pressure Visibility Wind Dir Wind Speed Gust Speed Precip Events Conditions
12:54 AM 79.0 °F - 72.0 °F 79% 30.00 in 10.0 mi Calm Calm - N/A   Clear
1:54 AM 78.1 °F - 72.0 °F 81% 29.99 in 10.0 mi SE 3.5 mph - N/A   Clear
2:54 AM 75.9 °F - 72.0 °F 87% 29.99 in 10.0 mi Calm Calm - N/A   Clear
3:54 AM 75.0 °F - 71.1 °F 87% 29.99 in 10.0 mi Calm Calm - N/A   Clear
4:54 AM 73.9 °F - 71.1 °F 91% 29.99 in 8.0 mi Calm Calm - N/A   Clear
5:54 AM 73.9 °F - 71.1 °F 91% 30.00 in 8.0 mi Calm Calm - N/A   Clear
6:54 AM 73.0 °F - 70.0 °F 90% 30.02 in 6.0 mi Calm Calm - N/A   Clear
7:54 AM 79.0 °F - 72.0 °F 79% 30.02 in 9.0 mi South 4.6 mph - N/A   Clear
8:54 AM 82.9 °F 88.8 °F 73.0 °F 72% 30.02 in 10.0 mi Variable 4.6 mph - N/A   Clear
9:54 AM 87.1 °F 94.5 °F 73.0 °F 63% 30.02 in 10.0 mi South 5.8 mph - N/A   Clear
10:54 AM 91.0 °F 98.2 °F 72.0 °F 53% 30.03 in 10.0 mi SW 5.8 mph - N/A   Clear
11:54 AM 93.0 °F 100.1 °F 71.1 °F 49% 30.03 in 10.0 mi WSW 9.2 mph - N/A   Clear
12:54 PM 93.9 °F 100.8 °F 71.1 °F 47% 30.02 in 10.0 mi WNW 8.1 mph - N/A   Clear
1:54 PM 95.0 °F 101.3 °F 70.0 °F 44% 30.02 in 10.0 mi West 9.2 mph - N/A   Partly Cloudy
2:50 PM 95.0 °F 101.3 °F 69.8 °F 44% 30.00 in 10.0 mi SW 3.5 mph - N/A Thunderstorm Partly Cloudy
2:54 PM 96.1 °F 101.6 °F 69.1 °F 41% 29.99 in 10.0 mi West 4.6 mph - N/A Thunderstorm Partly Cloudy
3:05 PM 96.1 °F 101.6 °F 69.1 °F 41% 30.00 in 10.0 mi WSW 8.1 mph - N/A   Partly Cloudy
3:54 PM 96.1 °F 101.6 °F 69.1 °F 41% 29.97 in 10.0 mi Variable 4.6 mph - N/A   Clear
4:54 PM 95.0 °F 100.7 °F 69.1 °F 43% 29.97 in 10.0 mi SSW 8.1 mph - N/A   Scattered Clouds
5:54 PM 89.1 °F 95.0 °F 71.1 °F 55% 29.97 in 10.0 mi Variable 4.6 mph - N/A   Clear
6:54 PM 88.0 °F 92.1 °F 69.1 °F 53% 29.98 in 10.0 mi Variable 5.8 mph - N/A   Clear
7:54 PM 82.9 °F 87.0 °F 70.0 °F 65% 30.01 in 10.0 mi ENE 3.5 mph - N/A   Clear
8:54 PM 81.0 °F 84.9 °F 71.1 °F 72% 30.01 in 10.0 mi Calm Calm - N/A   Clear
9:05 PM 80.1 °F 83.2 °F 70.0 °F 71% 30.04 in 10.0 mi West 4.6 mph - N/A Thunderstorm Clear
9:54 PM 82.9 °F 85.0 °F 66.0 °F 56% 30.04 in 10.0 mi Calm Calm - N/A Thunderstorm Clear
10:02 PM 82.0 °F 84.1 °F 66.0 °F 58% 30.05 in 10.0 mi Calm Calm - N/A   Clear
10:54 PM 78.1 °F - 69.1 °F 74% 30.05 in 10.0 mi NE 3.5 mph - N/A   Clear
11:54 PM 77.0 °F - 70.0 °F 79% 30.06 in 10.0 mi East 4.6 mph - N/A   Clear